sat.trackr.live / text

‹ back to catalog

STARLINK-2578

NORAD 48362 · 2021-038K

PAYLOAD ACTIVE UNKNOWN

§ Identity

Operator
Country
US
Launch date
2021-05-04
Launch site
AFETR
Launch vehicle
Mass (kg)
RCS (m²)

Purposes: comms

External: N2YO · Heavens-Above · Gunter

§ Orbital elements

Epoch: 2026-05-25T00:25:05.903616Z

Period
94.01 min
Inclination
53.1615°
Eccentricity
0.0001125
Mean motion
15.31695835 rev/d
Perigee alt
470.0 km
Apogee alt
471.5 km
Semi-major
6,848.9 km
B*
-1.6302e-5
RAAN
3.1377°
Arg perigee
76.7845°
Mean anomaly
283.3282°
Rev number
27,877

§ Raw data

STARLINK-25781 48362U 21038K   26145.01742944 -.00000871  00000+0 -16302-4 0  99992 48362  53.1615   3.1377 0001125  76.7845 283.3282 15.31695835278778

JSON: /api/v1/satellites/48362 · /tle

For live sub-satellite position, see the globe view (requires WebGL).

§ Visibility from observer

Set your observer location to see the next 7 days of passes ≥ 10°. The values pass through the URL so the page stays shareable.

No JS? Fill the form by hand. The geolocation button needs JavaScript.